Location: Newark
(33.9035°S, 18.4112°E)
Time: 17:04:40
(UTC+00:00)

STARLINK-1082 - Pass Details

Date: 22 January 2020
Orbit: 348 x 351 km, 53.0° (Epoch: 18 February)

Event Time Altitude Azimuth Distance (km) Brightness Sun altitude
Rises 10:55:48 0° 235° (SW) 2,182 6.6 76.1°
Reaches altitude 10° 10:57:58 10° 247° (WSW) 1,331 5.7 76.1°
Drops below altitude 10° 11:03:11 10° 11° (NNE) 1,314 5.9 76.0°
Enters shadow 11:30:50 -56° 43° (NE) 11,001 9.7 74.2°
Exits shadow 12:07:08 -52° 209° (SSW) 10,493 9.6 69.2°
